Time,TemperatureF,DewpointF,PressureIn,WindDirection,WindDirectionDegrees,WindSpeedMPH,WindSpeedGustMPH,Humidity,HourlyPrecipIn,Conditions,Clouds,dailyrainin,SoftwareType,DateUTC
2013-02-19 00:00:00,46.0,39.6,29.49,East,97,6.3,14.8,78,0.04,,---,0.00,VWS V13.01,2013-02-19 05:00:00,
2013-02-19 00:01:00,46.0,39.6,29.49,SSE,152,8.7,15.9,78,0.04,,---,0.00,VWS V13.01,2013-02-19 05:01:00,
2013-02-19 00:06:00,46.0,39.6,29.49,ENE,59,7.4,8.7,78,0.04,,---,0.00,VWS V13.01,2013-02-19 05:06:00,
2013-02-19 00:11:00,46.0,39.2,29.49,ESE,110,14.8,16.8,77,0.00,,---,0.00,VWS V13.01,2013-02-19 05:11:00,
2013-02-19 00:16:00,46.0,39.2,29.49,ESE,112,6.9,15.2,77,0.00,,---,0.00,VWS V13.01,2013-02-19 05:16:00,
2013-02-19 00:21:00,46.0,38.9,29.49,SE,141,16.8,19.0,76,0.00,,---,0.00,VWS V13.01,2013-02-19 05:21:00,
2013-02-19 00:26:00,46.0,38.9,29.46,ESE,122,7.8,13.4,76,0.00,,---,0.00,VWS V13.01,2013-02-19 05:26:00,
2013-02-19 00:31:00,46.0,38.9,29.46,South,186,9.2,12.5,76,0.00,,---,0.00,VWS V13.01,2013-02-19 05:31:00,
2013-02-19 00:36:00,46.0,39.2,29.46,SE,126,12.5,15.2,77,0.00,,---,0.00,VWS V13.01,2013-02-19 05:36:00,
2013-02-19 00:41:00,46.0,39.6,29.46,SSE,147,11.6,14.8,78,0.00,,---,0.00,VWS V13.01,2013-02-19 05:41:00,
2013-02-19 00:46:00,46.0,39.6,29.46,SE,144,10.1,15.2,78,0.00,,---,0.00,VWS V13.01,2013-02-19 05:46:00,
2013-02-19 00:51:00,46.0,39.6,29.46,East,87,7.8,13.9,78,0.00,,---,0.00,VWS V13.01,2013-02-19 05:51:00,
2013-02-19 00:56:00,46.2,39.8,29.43,SE,146,15.2,15.2,78,0.00,,---,0.00,VWS V13.01,2013-02-19 05:56:00,
2013-02-19 01:01:00,46.2,39.8,29.43,South,181,8.7,15.4,78,0.00,,---,0.00,VWS V13.01,2013-02-19 06:01:00,
2013-02-19 01:06:00,46.0,39.6,29.43,SE,137,8.3,12.1,78,0.00,,---,0.00,VWS V13.01,2013-02-19 06:06:00,
2013-02-19 01:11:00,46.0,39.9,29.43,East,97,10.5,15.9,79,0.00,,---,0.00,VWS V13.01,2013-02-19 06:11:00,
2013-02-19 01:16:00,46.2,40.4,29.43,ESE,118,15.2,15.2,80,0.00,,---,0.00,VWS V13.01,2013-02-19 06:16:00,
2013-02-19 01:21:00,46.2,40.4,29.43,SE,143,7.8,13.4,80,0.00,,---,0.00,VWS V13.01,2013-02-19 06:21:00,
2013-02-19 01:26:00,46.2,40.7,29.43,SSE,158,10.5,15.9,81,0.00,,---,0.00,VWS V13.01,2013-02-19 06:26:00,
2013-02-19 01:31:00,46.2,40.7,29.43,SSE,163,11.2,15.4,81,0.00,,---,0.00,VWS V13.01,2013-02-19 06:31:00,
2013-02-19 01:36:00,46.4,41.2,29.43,SSE,152,14.8,18.6,82,0.04,,---,0.04,VWS V13.01,2013-02-19 06:36:00,
2013-02-19 01:41:00,46.4,41.5,29.43,SSE,159,10.1,16.8,83,0.04,,---,0.04,VWS V13.01,2013-02-19 06:41:00,
2013-02-19 01:46:00,46.4,41.8,29.43,SSE,155,8.3,19.9,84,0.04,,---,0.04,VWS V13.01,2013-02-19 06:46:00,
2013-02-19 01:51:00,46.4,42.1,29.43,SSE,154,12.5,14.8,85,0.04,,---,0.04,VWS V13.01,2013-02-19 06:51:00,
2013-02-19 01:56:00,46.4,42.5,29.43,South,174,28.0,30.9,86,0.04,,---,0.04,VWS V13.01,2013-02-19 06:56:00,
2013-02-19 02:01:00,45.1,40.9,29.43,SSW,192,22.8,31.8,85,0.04,,---,0.04,VWS V13.01,2013-02-19 07:01:00,
2013-02-19 02:06:00,41.9,36.8,29.43,SW,217,9.2,18.6,82,0.04,,---,0.04,VWS V13.01,2013-02-19 07:06:00,
2013-02-19 02:11:00,40.3,34.9,29.46,WNW,287,6.7,15.9,81,0.04,,---,0.04,VWS V13.01,2013-02-19 07:11:00,
2013-02-19 02:16:00,39.4,34.7,29.46,SSW,210,8.3,11.0,83,0.04,,---,0.04,VWS V13.01,2013-02-19 07:16:00,
2013-02-19 02:21:00,38.8,34.1,29.46,West,274,11.2,11.6,83,0.04,,---,0.04,VWS V13.01,2013-02-19 07:21:00,
2013-02-19 02:26:00,37.9,33.5,29.49,SW,224,12.1,13.4,84,0.04,,---,0.04,VWS V13.01,2013-02-19 07:26:00,
2013-02-19 02:31:00,37.6,33.5,29.49,South,191,11.6,12.5,85,0.04,,---,0.04,VWS V13.01,2013-02-19 07:31:00,
2013-02-19 02:36:00,37.4,33.6,29.49,SW,225,13.0,16.8,86,0.00,,---,0.04,VWS V13.01,2013-02-19 07:36:00,
2013-02-19 02:41:00,37.2,33.4,29.49,SSE,164,7.8,11.2,86,0.00,,---,0.04,VWS V13.01,2013-02-19 07:41:00,
2013-02-19 02:46:00,37.4,33.9,29.49,SW,214,8.7,15.4,87,0.00,,---,0.04,VWS V13.01,2013-02-19 07:46:00,
2013-02-19 02:51:00,37.4,33.9,29.49,South,177,8.3,9.2,87,0.00,,---,0.04,VWS V13.01,2013-02-19 07:51:00,
2013-02-19 02:56:00,37.4,33.9,29.52,SSW,199,10.5,11.0,87,0.00,,---,0.04,VWS V13.01,2013-02-19 07:56:00,
2013-02-19 03:01:00,37.2,34.0,29.52,South,188,11.6,12.1,88,0.00,,---,0.04,VWS V13.01,2013-02-19 08:01:00,
2013-02-19 03:06:00,37.2,34.0,29.52,SW,232,9.2,9.2,88,0.00,,---,0.04,VWS V13.01,2013-02-19 08:06:00,
2013-02-19 03:11:00,37.4,34.2,29.52,SSW,210,10.5,10.5,88,0.00,,---,0.04,VWS V13.01,2013-02-19 08:11:00,
2013-02-19 03:16:00,37.0,33.8,29.52,ESE,109,6.7,11.2,88,0.00,,---,0.04,VWS V13.01,2013-02-19 08:16:00,
2013-02-19 03:21:00,36.3,32.8,29.52,WSW,239,11.2,24.2,87,0.00,,---,0.04,VWS V13.01,2013-02-19 08:21:00,
2013-02-19 03:26:00,35.8,31.4,29.52,SSW,210,11.6,13.0,84,0.00,,---,0.04,VWS V13.01,2013-02-19 08:26:00,
2013-02-19 03:31:00,35.4,30.5,29.52,South,188,17.2,21.9,82,0.00,,---,0.04,VWS V13.01,2013-02-19 08:31:00,
2013-02-19 03:36:00,35.2,29.7,29.52,SSW,212,11.0,11.0,80,0.00,,---,0.04,VWS V13.01,2013-02-19 08:36:00,
2013-02-19 03:41:00,35.1,29.5,29.55,SW,225,7.8,9.2,80,0.00,,---,0.04,VWS V13.01,2013-02-19 08:41:00,
2013-02-19 03:46:00,35.1,29.2,29.55,SW,223,4.9,14.3,79,0.00,,---,0.04,VWS V13.01,2013-02-19 08:46:00,
2013-02-19 03:51:00,35.1,29.2,29.55,South,190,11.2,11.6,79,0.00,,---,0.04,VWS V13.01,2013-02-19 08:51:00,
2013-02-19 03:56:00,35.1,29.2,29.55,SSW,202,10.1,13.0,79,0.00,,---,0.04,VWS V13.01,2013-02-19 08:56:00,
2013-02-19 04:01:00,35.1,29.2,29.55,SSW,205,11.0,17.7,79,0.00,,---,0.04,VWS V13.01,2013-02-19 09:01:00,
2013-02-19 04:06:00,34.9,29.0,29.55,SW,221,15.9,18.1,79,0.00,,---,0.04,VWS V13.01,2013-02-19 09:06:00,
2013-02-19 04:11:00,34.5,28.7,29.55,South,182,13.4,13.4,79,0.00,,---,0.04,VWS V13.01,2013-02-19 09:11:00,
2013-02-19 04:16:00,34.5,28.7,29.55,SW,219,12.5,22.8,79,0.00,,---,0.04,VWS V13.01,2013-02-19 09:16:00,
2013-02-19 04:21:00,34.2,28.3,29.55,SSW,201,10.1,13.0,79,0.00,,---,0.04,VWS V13.01,2013-02-19 09:21:00,
2013-02-19 04:26:00,34.0,28.2,29.55,SW,219,17.7,19.9,79,0.00,,---,0.04,VWS V13.01,2013-02-19 09:26:00,
2013-02-19 04:31:00,33.6,27.5,29.55,WSW,238,7.4,12.1,78,0.00,,---,0.04,VWS V13.01,2013-02-19 09:31:00,
2013-02-19 04:36:00,33.3,27.1,29.55,South,169,7.8,21.9,78,0.00,,---,0.04,VWS V13.01,2013-02-19 09:36:00,
2013-02-19 04:41:00,32.7,26.6,29.55,South,190,8.7,13.4,78,0.00,,---,0.04,VWS V13.01,2013-02-19 09:41:00,
2013-02-19 04:46:00,32.7,26.6,29.55,SW,232,9.6,15.2,78,0.00,,---,0.04,VWS V13.01,2013-02-19 09:46:00,
2013-02-19 04:51:00,32.5,26.8,29.55,SSW,201,7.4,18.1,79,0.00,,---,0.04,VWS V13.01,2013-02-19 09:51:00,
2013-02-19 04:56:00,32.5,26.8,29.58,SW,232,8.7,11.0,79,0.00,,---,0.04,VWS V13.01,2013-02-19 09:56:00,
2013-02-19 05:01:00,32.5,26.8,29.58,SW,229,6.9,10.5,79,0.00,,---,0.04,VWS V13.01,2013-02-19 10:01:00,
2013-02-19 05:06:00,32.5,26.8,29.58,SSW,205,9.6,12.5,79,0.00,,---,0.04,VWS V13.01,2013-02-19 10:06:00,
2013-02-19 05:12:00,31.8,25.8,29.58,SW,217,12.5,21.9,78,0.00,,---,0.04,VWS V13.01,2013-02-19 10:12:00,
2013-02-19 05:16:00,31.3,24.6,29.58,SSW,205,10.1,14.3,76,0.00,,---,0.04,VWS V13.01,2013-02-19 10:16:00,
2013-02-19 05:21:00,31.1,24.4,29.58,SSW,199,12.5,17.2,76,0.00,,---,0.04,VWS V13.01,2013-02-19 10:21:00,
2013-02-19 05:27:00,30.7,24.1,29.58,SW,235,4.9,11.0,76,0.00,,---,0.04,VWS V13.01,2013-02-19 10:27:00,
2013-02-19 05:32:00,30.6,23.6,29.58,SW,226,16.8,22.4,75,0.00,,---,0.04,VWS V13.01,2013-02-19 10:32:00,
2013-02-19 05:36:00,30.2,22.9,29.58,SSW,201,7.8,11.2,74,0.00,,---,0.04,VWS V13.01,2013-02-19 10:36:00,
2013-02-19 05:42:00,30.0,22.8,29.58,South,172,14.8,19.0,74,0.00,,---,0.04,VWS V13.01,2013-02-19 10:42:00,
2013-02-19 05:47:00,29.3,21.7,29.58,SSW,196,16.8,22.4,73,0.00,,---,0.04,VWS V13.01,2013-02-19 10:47:00,
2013-02-19 05:52:00,29.1,21.9,29.58,South,176,7.8,18.6,74,0.00,,---,0.04,VWS V13.01,2013-02-19 10:52:00,
2013-02-19 05:57:00,28.9,22.0,29.61,South,185,15.4,18.1,75,0.00,,---,0.04,VWS V13.01,2013-02-19 10:57:00,
2013-02-19 06:02:00,28.4,21.2,29.61,SSE,168,12.5,19.0,74,0.00,,---,0.04,VWS V13.01,2013-02-19 11:02:00,
2013-02-19 06:07:00,28.0,20.5,29.61,South,171,12.5,17.2,73,0.00,,---,0.04,VWS V13.01,2013-02-19 11:07:00,
2013-02-19 06:12:00,28.0,20.8,29.61,South,172,13.4,13.4,74,0.00,,---,0.04,VWS V13.01,2013-02-19 11:12:00,
2013-02-19 06:17:00,27.7,20.2,29.61,SSW,205,11.2,19.5,73,0.00,,---,0.04,VWS V13.01,2013-02-19 11:17:00,
2013-02-19 06:22:00,27.5,20.0,29.61,SSW,212,15.4,19.0,73,0.00,,---,0.04,VWS V13.01,2013-02-19 11:22:00,
2013-02-19 06:27:00,26.8,18.6,29.61,South,178,19.0,19.5,71,0.00,,---,0.04,VWS V13.01,2013-02-19 11:27:00,
2013-02-19 06:32:00,26.2,17.5,29.61,SSW,209,12.1,19.5,69,0.00,,---,0.04,VWS V13.01,2013-02-19 11:32:00,
2013-02-19 06:37:00,26.1,17.0,29.61,SSW,209,13.9,13.9,68,0.00,,---,0.04,VWS V13.01,2013-02-19 11:37:00,
2013-02-19 06:42:00,25.9,16.8,29.64,SW,217,9.6,12.1,68,0.00,,---,0.04,VWS V13.01,2013-02-19 11:42:00,
2013-02-19 06:47:00,25.9,16.8,29.64,SSW,205,12.5,13.0,68,0.00,,---,0.04,VWS V13.01,2013-02-19 11:47:00,
2013-02-19 06:52:00,25.5,16.1,29.64,SW,222,10.5,13.0,67,0.00,,---,0.04,VWS V13.01,2013-02-19 11:52:00,
2013-02-19 06:57:00,25.7,16.3,29.64,South,171,11.2,12.1,67,0.00,,---,0.04,VWS V13.01,2013-02-19 11:57:00,
2013-02-19 07:02:00,25.7,16.3,29.64,SSE,158,11.0,14.8,67,0.00,,---,0.04,VWS V13.01,2013-02-19 12:02:00,
2013-02-19 07:07:00,25.5,16.1,29.64,SSW,201,6.7,16.8,67,0.00,,---,0.04,VWS V13.01,2013-02-19 12:07:00,
2013-02-19 07:12:00,25.5,16.1,29.64,SSW,212,12.5,13.0,67,0.00,,---,0.04,VWS V13.01,2013-02-19 12:12:00,
2013-02-19 07:17:00,25.2,15.8,29.64,South,188,23.7,25.7,67,0.00,,---,0.04,VWS V13.01,2013-02-19 12:17:00,
2013-02-19 07:22:00,24.6,14.2,29.64,South,187,19.5,20.1,64,0.00,,---,0.04,VWS V13.01,2013-02-19 12:22:00,
2013-02-19 07:27:00,24.6,13.8,29.64,WSW,254,9.2,19.0,63,0.00,,---,0.04,VWS V13.01,2013-02-19 12:27:00,
2013-02-19 07:32:00,24.6,13.8,29.64,South,182,9.2,15.4,63,0.00,,---,0.04,VWS V13.01,2013-02-19 12:32:00,
2013-02-19 07:37:00,24.6,14.2,29.64,SSW,204,7.4,13.9,64,0.00,,---,0.04,VWS V13.01,2013-02-19 12:37:00,
2013-02-19 07:42:00,24.1,13.7,29.64,SSW,199,25.3,29.1,64,0.00,,---,0.04,VWS V13.01,2013-02-19 12:42:00,
2013-02-19 07:47:00,23.7,13.3,29.64,SSW,210,17.2,21.9,64,0.00,,---,0.04,VWS V13.01,2013-02-19 12:47:00,
2013-02-19 07:52:00,23.5,13.5,29.64,SSW,195,13.4,21.5,65,0.00,,---,0.04,VWS V13.01,2013-02-19 12:52:00,
2013-02-19 07:57:00,23.4,13.4,29.64,South,185,17.2,19.9,65,0.00,,---,0.04,VWS V13.01,2013-02-19 12:57:00,
2013-02-19 08:02:00,23.4,13.4,29.64,West,261,13.9,21.0,65,0.00,,---,0.04,VWS V13.01,2013-02-19 13:02:00,
2013-02-19 08:07:00,23.2,13.2,29.64,SSW,211,8.7,18.6,65,0.00,,---,0.04,VWS V13.01,2013-02-19 13:07:00,
2013-02-19 08:12:00,23.0,13.0,29.67,SSW,203,14.3,16.3,65,0.00,,---,0.04,VWS V13.01,2013-02-19 13:12:00,
2013-02-19 08:17:00,22.6,12.7,29.67,SSW,213,11.0,22.4,65,0.00,,---,0.04,VWS V13.01,2013-02-19 13:17:00,
2013-02-19 08:22:00,22.5,12.5,29.67,SSW,207,10.1,15.4,65,0.00,,---,0.04,VWS V13.01,2013-02-19 13:22:00,
2013-02-19 08:27:00,22.5,12.8,29.67,SW,235,15.2,17.7,66,0.00,,---,0.04,VWS V13.01,2013-02-19 13:27:00,
2013-02-19 08:32:00,22.3,13.0,29.67,South,181,10.5,14.8,67,0.00,,---,0.04,VWS V13.01,2013-02-19 13:32:00,
2013-02-19 08:37:00,22.3,13.3,29.67,South,171,7.8,15.4,68,0.00,,---,0.04,VWS V13.01,2013-02-19 13:37:00,
2013-02-19 08:42:00,22.1,13.5,29.67,South,178,17.7,25.3,69,0.00,,---,0.04,VWS V13.01,2013-02-19 13:42:00,
2013-02-19 08:47:00,21.6,13.0,29.67,SSW,199,20.1,20.1,69,0.00,,---,0.04,VWS V13.01,2013-02-19 13:47:00,
2013-02-19 08:52:00,21.6,13.0,29.67,West,266,12.5,15.4,69,0.00,,---,0.04,VWS V13.01,2013-02-19 13:52:00,
2013-02-19 08:57:00,21.4,12.5,29.70,South,175,15.9,24.2,68,0.00,,---,0.04,VWS V13.01,2013-02-19 13:57:00,
2013-02-19 09:02:00,21.2,12.0,29.70,South,170,18.1,19.5,67,0.00,,---,0.04,VWS V13.01,2013-02-19 14:02:00,
2013-02-19 09:07:00,21.2,12.0,29.70,WSW,245,13.9,13.9,67,0.00,,---,0.04,VWS V13.01,2013-02-19 14:07:00,
2013-02-19 09:12:00,21.2,12.3,29.70,SE,141,11.6,13.0,68,0.00,,---,0.04,VWS V13.01,2013-02-19 14:12:00,
2013-02-19 09:17:00,21.4,13.1,29.70,SSW,210,11.6,14.3,70,0.00,,---,0.04,VWS V13.01,2013-02-19 14:17:00,
2013-02-19 09:22:00,21.4,13.4,29.70,SW,214,17.7,19.0,71,0.00,,---,0.04,VWS V13.01,2013-02-19 14:22:00,
2013-02-19 09:27:00,20.8,12.3,29.70,South,177,12.5,12.5,69,0.00,,---,0.04,VWS V13.01,2013-02-19 14:27:00,
2013-02-19 09:32:00,20.8,12.0,29.70,SSE,157,7.4,11.6,68,0.00,,---,0.04,VWS V13.01,2013-02-19 14:32:00,
2013-02-19 09:37:00,20.8,11.3,29.70,SSW,197,11.6,11.6,66,0.00,,---,0.04,VWS V13.01,2013-02-19 14:37:00,
2013-02-19 09:42:00,20.7,10.4,29.70,SW,216,7.4,11.2,64,0.00,,---,0.04,VWS V13.01,2013-02-19 14:42:00,
2013-02-19 09:47:00,20.7,9.7,29.70,South,176,13.9,17.2,62,0.00,,---,0.04,VWS V13.01,2013-02-19 14:47:00,
2013-02-19 09:52:00,21.0,10.1,29.70,SSW,198,9.2,11.0,62,0.00,,---,0.04,VWS V13.01,2013-02-19 14:52:00,
2013-02-19 09:57:00,20.8,10.2,29.70,SW,226,19.9,19.9,63,0.00,,---,0.04,VWS V13.01,2013-02-19 14:57:00,
2013-02-19 10:02:00,20.5,9.9,29.70,SSW,202,19.5,19.5,63,0.00,,---,0.04,VWS V13.01,2013-02-19 15:02:00,
2013-02-19 10:07:00,20.7,10.4,29.70,SSW,194,11.2,11.2,64,0.00,,---,0.04,VWS V13.01,2013-02-19 15:07:00,
2013-02-19 10:12:00,20.8,11.3,29.73,South,178,13.4,16.3,66,0.00,,---,0.04,VWS V13.01,2013-02-19 15:12:00,
2013-02-19 10:17:00,20.8,11.6,29.73,SSW,203,17.2,19.9,67,0.00,,---,0.04,VWS V13.01,2013-02-19 15:17:00,
2013-02-19 10:22:00,21.2,11.3,29.73,SW,214,11.0,18.1,65,0.00,,---,0.04,VWS V13.01,2013-02-19 15:22:00,
2013-02-19 10:27:00,21.2,11.3,29.73,SSW,208,13.0,16.3,65,0.00,,---,0.04,VWS V13.01,2013-02-19 15:27:00,
2013-02-19 10:32:00,20.8,11.3,29.73,South,186,11.6,14.3,66,0.00,,---,0.04,VWS V13.01,2013-02-19 15:32:00,
2013-02-19 10:37:00,20.8,11.6,29.73,SSW,213,10.5,10.5,67,0.00,,---,0.04,VWS V13.01,2013-02-19 15:37:00,
2013-02-19 10:42:00,20.7,11.4,29.73,South,178,12.5,13.0,67,0.00,,---,0.04,VWS V13.01,2013-02-19 15:42:00,
2013-02-19 10:47:00,20.3,10.8,29.73,SW,219,15.4,15.4,66,0.00,,---,0.04,VWS V13.01,2013-02-19 15:47:00,
2013-02-19 10:52:00,20.1,10.3,29.73,SSW,204,16.3,17.7,65,0.00,,---,0.04,VWS V13.01,2013-02-19 15:52:00,
2013-02-19 10:57:00,20.5,9.9,29.73,SSW,209,11.0,17.7,63,0.00,,---,0.04,VWS V13.01,2013-02-19 15:57:00,
2013-02-19 11:02:00,20.8,8.0,29.73,SSW,204,11.2,13.4,57,0.00,,---,0.04,VWS V13.01,2013-02-19 16:02:00,
2013-02-19 11:07:00,21.0,7.0,29.73,SW,222,14.8,15.9,54,0.00,,---,0.04,VWS V13.01,2013-02-19 16:07:00,
2013-02-19 11:12:00,20.5,6.5,29.73,SW,225,11.2,17.2,54,0.00,,---,0.04,VWS V13.01,2013-02-19 16:12:00,
2013-02-19 11:17:00,20.7,7.5,29.73,South,172,13.9,16.8,56,0.00,,---,0.04,VWS V13.01,2013-02-19 16:17:00,
2013-02-19 11:22:00,20.7,7.8,29.73,South,176,8.3,12.5,57,0.00,,---,0.04,VWS V13.01,2013-02-19 16:22:00,
2013-02-19 11:27:00,20.7,8.2,29.76,South,176,14.8,19.5,58,0.00,,---,0.04,VWS V13.01,2013-02-19 16:27:00,
2013-02-19 11:32:00,20.1,7.3,29.76,SSE,162,13.9,19.9,57,0.00,,---,0.04,VWS V13.01,2013-02-19 16:32:00,
2013-02-19 11:37:00,20.7,7.1,29.76,SSW,196,13.4,15.9,55,0.00,,---,0.04,VWS V13.01,2013-02-19 16:37:00,
2013-02-19 11:42:00,21.0,6.6,29.76,SW,227,8.3,13.9,53,0.00,,---,0.04,VWS V13.01,2013-02-19 16:42:00,
2013-02-19 11:47:00,20.8,6.0,29.76,SE,132,6.7,15.2,52,0.00,,---,0.04,VWS V13.01,2013-02-19 16:47:00,
2013-02-19 11:52:00,20.8,6.4,29.76,South,181,23.3,23.3,53,0.00,,---,0.04,VWS V13.01,2013-02-19 16:52:00,
2013-02-19 11:57:00,19.9,5.6,29.76,South,181,8.7,15.2,53,0.00,,---,0.04,VWS V13.01,2013-02-19 16:57:00,
2013-02-19 12:02:00,19.8,5.8,29.76,SSW,200,12.1,19.0,54,0.00,,---,0.04,VWS V13.01,2013-02-19 17:02:00,
2013-02-19 12:07:00,20.1,6.6,29.76,South,174,11.6,11.6,55,0.00,,---,0.04,VWS V13.01,2013-02-19 17:07:00,
2013-02-19 12:12:00,20.1,7.3,29.76,SSE,161,19.0,19.9,57,0.00,,---,0.04,VWS V13.01,2013-02-19 17:12:00,
2013-02-19 12:17:00,20.1,7.3,29.76,SSW,193,18.1,21.5,57,0.00,,---,0.04,VWS V13.01,2013-02-19 17:17:00,
2013-02-19 12:23:00,21.0,8.2,29.76,SSW,195,6.9,12.5,57,0.00,,---,0.04,VWS V13.01,2013-02-19 17:23:00,
2013-02-19 12:28:00,20.5,6.5,29.76,South,179,17.2,18.1,54,0.00,,---,0.04,VWS V13.01,2013-02-19 17:28:00,
2013-02-19 12:33:00,20.5,6.5,29.76,South,191,6.9,15.9,54,0.00,,---,0.04,VWS V13.01,2013-02-19 17:33:00,
2013-02-19 12:38:00,20.3,6.7,29.79,South,185,13.4,15.9,55,0.00,,---,0.04,VWS V13.01,2013-02-19 17:38:00,
2013-02-19 12:43:00,19.6,6.1,29.79,SSE,164,9.2,24.8,55,0.00,,---,0.04,VWS V13.01,2013-02-19 17:43:00,
2013-02-19 12:48:00,19.4,5.9,29.79,SW,230,16.8,24.2,55,0.00,,---,0.04,VWS V13.01,2013-02-19 17:48:00,
2013-02-19 12:53:00,19.8,5.8,29.79,South,188,10.1,17.2,54,0.00,,---,0.04,VWS V13.01,2013-02-19 17:53:00,
2013-02-19 12:58:00,19.9,5.6,29.79,SW,231,10.1,14.8,53,0.00,,---,0.04,VWS V13.01,2013-02-19 17:58:00,
2013-02-19 13:03:00,19.8,5.0,29.79,South,184,20.1,20.1,52,0.00,,---,0.04,VWS V13.01,2013-02-19 18:03:00,
2013-02-19 13:08:00,20.5,6.1,29.79,SE,137,9.6,14.8,53,0.00,,---,0.04,VWS V13.01,2013-02-19 18:08:00,
2013-02-19 13:13:00,20.8,6.0,29.79,SSW,197,14.8,18.1,52,0.00,,---,0.04,VWS V13.01,2013-02-19 18:13:00,
2013-02-19 13:18:00,20.5,4.8,29.79,SSW,205,11.6,17.2,50,0.00,,---,0.04,VWS V13.01,2013-02-19 18:18:00,
2013-02-19 13:23:00,20.1,4.0,29.79,South,177,7.4,20.1,49,0.00,,---,0.04,VWS V13.01,2013-02-19 18:23:00,
2013-02-19 13:28:00,19.9,4.7,29.79,SW,216,14.8,15.9,51,0.00,,---,0.04,VWS V13.01,2013-02-19 18:28:00,
2013-02-19 13:33:00,19.9,5.2,29.79,SSW,205,14.3,19.5,52,0.00,,---,0.04,VWS V13.01,2013-02-19 18:33:00,
2013-02-19 13:38:00,19.9,5.2,29.79,West,261,12.1,16.8,52,0.00,,---,0.04,VWS V13.01,2013-02-19 18:38:00,
2013-02-19 13:43:00,19.8,5.0,29.79,SE,146,11.0,15.2,52,0.00,,---,0.04,VWS V13.01,2013-02-19 18:43:00,
2013-02-19 13:48:00,20.1,5.7,29.79,SSW,199,6.9,21.9,53,0.00,,---,0.04,VWS V13.01,2013-02-19 18:48:00,
2013-02-19 13:53:00,20.1,4.9,29.79,SE,129,10.1,12.5,51,0.00,,---,0.04,VWS V13.01,2013-02-19 18:53:00,
2013-02-19 13:58:00,19.9,5.2,29.79,SSE,162,15.9,15.9,52,0.00,,---,0.04,VWS V13.01,2013-02-19 18:58:00,
2013-02-19 14:03:00,19.4,5.5,29.79,SSW,209,19.0,23.7,54,0.00,,---,0.04,VWS V13.01,2013-02-19 19:03:00,
2013-02-19 14:08:00,19.0,4.7,29.79,SW,217,13.0,13.0,53,0.00,,---,0.04,VWS V13.01,2013-02-19 19:08:00,
2013-02-19 14:13:00,19.2,5.3,29.79,SSW,207,6.3,6.3,54,0.00,,---,0.04,VWS V13.01,2013-02-19 19:13:00,
2013-02-19 14:18:00,19.9,5.6,29.79,SSW,212,15.2,15.2,53,0.00,,---,0.04,VWS V13.01,2013-02-19 19:18:00,
2013-02-19 14:23:00,19.6,4.0,29.82,South,179,16.8,16.8,50,0.00,,---,0.04,VWS V13.01,2013-02-19 19:23:00,
2013-02-19 14:28:00,19.6,4.0,29.82,WSW,249,15.2,18.1,50,0.00,,---,0.04,VWS V13.01,2013-02-19 19:28:00,
2013-02-19 14:33:00,19.6,4.0,29.82,WSW,239,7.4,13.4,50,0.00,,---,0.04,VWS V13.01,2013-02-19 19:33:00,
2013-02-19 14:38:00,19.4,3.8,29.82,WSW,255,8.3,10.5,50,0.00,,---,0.04,VWS V13.01,2013-02-19 19:38:00,
2013-02-19 14:43:00,19.4,4.2,29.82,SW,215,8.7,10.5,51,0.00,,---,0.04,VWS V13.01,2013-02-19 19:43:00,
2013-02-19 14:48:00,19.2,4.5,29.82,SSE,158,11.6,11.6,52,0.00,,---,0.04,VWS V13.01,2013-02-19 19:48:00,
2013-02-19 14:53:00,19.0,4.3,29.82,SSW,193,9.6,9.6,52,0.00,,---,0.04,VWS V13.01,2013-02-19 19:53:00,
2013-02-19 14:58:00,18.5,3.4,29.82,SW,222,17.2,17.2,51,0.00,,---,0.04,VWS V13.01,2013-02-19 19:58:00,
2013-02-19 15:03:00,18.1,3.9,29.82,SW,214,6.7,10.1,53,0.00,,---,0.04,VWS V13.01,2013-02-19 20:03:00,
2013-02-19 15:08:00,18.0,3.7,29.82,SSW,199,16.8,19.9,53,0.00,,---,0.04,VWS V13.01,2013-02-19 20:08:00,
2013-02-19 15:13:00,18.0,4.1,29.82,SW,234,10.5,15.4,54,0.00,,---,0.04,VWS V13.01,2013-02-19 20:13:00,
2013-02-19 15:18:00,17.8,4.0,29.82,SE,141,18.1,18.1,54,0.00,,---,0.04,VWS V13.01,2013-02-19 20:18:00,
2013-02-19 15:23:00,17.6,4.2,29.85,SSW,209,13.9,19.0,55,0.00,,---,0.04,VWS V13.01,2013-02-19 20:23:00,
2013-02-19 15:28:00,17.4,4.0,29.85,South,183,17.7,28.0,55,0.00,,---,0.04,VWS V13.01,2013-02-19 20:28:00,
2013-02-19 15:33:00,17.4,4.4,29.85,South,178,11.2,17.7,56,0.00,,---,0.04,VWS V13.01,2013-02-19 20:33:00,
2013-02-19 15:38:00,17.6,4.6,29.85,SW,229,13.9,13.9,56,0.00,,---,0.04,VWS V13.01,2013-02-19 20:38:00,
2013-02-19 15:43:00,17.8,4.4,29.85,SSE,156,6.3,10.1,55,0.00,,---,0.04,VWS V13.01,2013-02-19 20:43:00,
2013-02-19 15:48:00,18.0,4.5,29.85,SSW,212,10.5,12.5,55,0.00,,---,0.04,VWS V13.01,2013-02-19 20:48:00,
2013-02-19 15:53:00,18.0,4.1,29.85,SW,234,5.8,14.8,54,0.00,,---,0.04,VWS V13.01,2013-02-19 20:53:00,
2013-02-19 15:58:00,17.8,4.4,29.85,SW,221,8.7,8.7,55,0.00,,---,0.04,VWS V13.01,2013-02-19 20:58:00,
2013-02-19 16:03:00,17.6,4.2,29.85,SSW,212,15.2,15.2,55,0.00,,---,0.04,VWS V13.01,2013-02-19 21:03:00,
2013-02-19 16:08:00,17.4,4.0,29.88,SW,215,16.8,23.7,55,0.00,,---,0.04,VWS V13.01,2013-02-19 21:08:00,
2013-02-19 16:13:00,17.4,4.0,29.88,SSE,164,6.7,17.7,55,0.00,,---,0.04,VWS V13.01,2013-02-19 21:13:00,
2013-02-19 16:19:00,17.8,4.4,29.88,South,189,12.5,19.0,55,0.00,,---,0.04,VWS V13.01,2013-02-19 21:19:00,
2013-02-19 16:24:00,18.0,4.5,29.88,SSE,150,9.6,11.0,55,0.00,,---,0.04,VWS V13.01,2013-02-19 21:24:00,
2013-02-19 16:29:00,18.3,4.9,29.88,SW,215,6.3,13.9,55,0.00,,---,0.04,VWS V13.01,2013-02-19 21:29:00,
2013-02-19 16:34:00,18.9,5.0,29.88,South,191,9.6,10.1,54,0.00,,---,0.04,VWS V13.01,2013-02-19 21:34:00,
2013-02-19 16:39:00,18.7,4.8,29.88,South,178,11.0,11.6,54,0.00,,---,0.04,VWS V13.01,2013-02-19 21:39:00,
2013-02-19 16:44:00,18.3,4.9,29.88,SW,214,19.0,19.0,55,0.00,,---,0.04,VWS V13.01,2013-02-19 21:44:00,
2013-02-19 16:49:00,18.0,4.5,29.88,South,191,16.3,16.3,55,0.00,,---,0.04,VWS V13.01,2013-02-19 21:49:00,
2013-02-19 16:54:00,18.0,4.9,29.88,SSW,212,13.9,13.9,56,0.00,,---,0.04,VWS V13.01,2013-02-19 21:54:00,
2013-02-19 16:59:00,18.0,5.3,29.88,SSE,161,6.9,13.0,57,0.00,,---,0.04,VWS V13.01,2013-02-19 21:59:00,
2013-02-19 17:04:00,18.0,5.7,29.88,South,188,7.8,11.2,58,0.00,,---,0.04,VWS V13.01,2013-02-19 22:04:00,
2013-02-19 17:09:00,18.0,6.1,29.91,SSW,195,19.5,19.5,59,0.00,,---,0.04,VWS V13.01,2013-02-19 22:09:00,
2013-02-19 17:14:00,17.6,5.7,29.91,SSW,203,8.7,15.2,59,0.00,,---,0.04,VWS V13.01,2013-02-19 22:14:00,
2013-02-19 17:19:00,17.8,6.6,29.91,WSW,253,6.7,9.6,61,0.00,,---,0.04,VWS V13.01,2013-02-19 22:19:00,
2013-02-19 17:24:00,17.6,6.4,29.91,SSW,195,10.5,10.5,61,0.00,,---,0.04,VWS V13.01,2013-02-19 22:24:00,
2013-02-19 17:29:00,17.8,7.0,29.91,SW,221,6.3,7.4,62,0.00,,---,0.04,VWS V13.01,2013-02-19 22:29:00,
2013-02-19 17:34:00,17.4,6.3,29.91,West,267,12.1,18.6,61,0.00,,---,0.04,VWS V13.01,2013-02-19 22:34:00,
2013-02-19 17:39:00,17.2,6.1,29.91,South,176,10.1,10.1,61,0.00,,---,0.04,VWS V13.01,2013-02-19 22:39:00,
2013-02-19 17:44:00,17.4,6.6,29.91,SW,216,9.2,9.2,62,0.00,,---,0.04,VWS V13.01,2013-02-19 22:44:00,
2013-02-19 17:49:00,17.2,6.5,29.91,WSW,237,7.8,11.0,62,0.00,,---,0.04,VWS V13.01,2013-02-19 22:49:00,
2013-02-19 17:54:00,17.1,6.3,29.93,WSW,249,9.2,10.5,62,0.00,,---,0.04,VWS V13.01,2013-02-19 22:54:00,
2013-02-19 17:59:00,16.9,6.5,29.93,SSW,197,12.5,12.5,63,0.00,,---,0.04,VWS V13.01,2013-02-19 22:59:00,
2013-02-19 18:04:00,16.9,6.5,29.93,SSW,213,9.6,13.4,63,0.00,,---,0.04,VWS V13.01,2013-02-19 23:04:00,
2013-02-19 18:09:00,16.7,6.7,29.93,South,191,16.3,19.5,64,0.00,,---,0.04,VWS V13.01,2013-02-19 23:09:00,
2013-02-19 18:14:00,16.7,7.0,29.93,WSW,246,10.1,14.8,65,0.00,,---,0.04,VWS V13.01,2013-02-19 23:14:00,
2013-02-19 18:19:00,16.7,7.0,29.93,SSW,212,15.2,15.2,65,0.00,,---,0.04,VWS V13.01,2013-02-19 23:19:00,
2013-02-19 18:24:00,16.7,7.3,29.93,SW,227,4.9,11.0,66,0.00,,---,0.04,VWS V13.01,2013-02-19 23:24:00,
2013-02-19 18:29:00,16.7,7.7,29.93,South,191,15.2,15.2,67,0.00,,---,0.04,VWS V13.01,2013-02-19 23:29:00,
2013-02-19 18:34:00,16.5,7.5,29.93,SSW,195,16.3,16.3,67,0.00,,---,0.04,VWS V13.01,2013-02-19 23:34:00,
2013-02-19 18:39:00,16.3,7.3,29.93,SSW,211,13.0,13.0,67,0.00,,---,0.04,VWS V13.01,2013-02-19 23:39:00,
2013-02-19 18:44:00,16.5,7.8,29.93,SW,218,8.7,10.1,68,0.00,,---,0.04,VWS V13.01,2013-02-19 23:44:00,
2013-02-19 18:49:00,16.5,7.8,29.93,South,191,11.0,12.1,68,0.00,,---,0.04,VWS V13.01,2013-02-19 23:49:00,
2013-02-19 18:54:00,16.7,8.3,29.93,South,190,9.2,9.6,69,0.00,,---,0.04,VWS V13.01,2013-02-19 23:54:00,
2013-02-19 18:59:00,16.5,8.1,29.93,SSW,208,9.2,9.2,69,0.00,,---,0.04,VWS V13.01,2013-02-19 23:59:00,
2013-02-19 19:04:00,16.5,8.1,29.93,South,188,9.6,10.5,69,0.00,,---,0.04,VWS V13.01,2013-02-20 00:04:00,
2013-02-19 19:09:00,16.7,8.3,29.96,SW,217,8.7,11.6,69,0.00,,---,0.04,VWS V13.01,2013-02-20 00:09:00,
2013-02-19 19:14:00,16.5,8.1,29.96,SW,224,7.8,21.9,69,0.00,,---,0.04,VWS V13.01,2013-02-20 00:14:00,
2013-02-19 19:19:00,16.5,8.1,29.96,SSE,150,7.8,13.4,69,0.00,,---,0.04,VWS V13.01,2013-02-20 00:19:00,
2013-02-19 19:24:00,16.5,8.1,29.96,SSW,206,11.0,11.2,69,0.00,,---,0.04,VWS V13.01,2013-02-20 00:24:00,
2013-02-19 19:29:00,16.5,7.8,29.96,SSW,202,10.5,10.5,68,0.00,,---,0.04,VWS V13.01,2013-02-20 00:29:00,
2013-02-19 19:34:00,16.5,7.8,29.96,SW,234,12.1,13.4,68,0.00,,---,0.04,VWS V13.01,2013-02-20 00:34:00,
2013-02-19 19:39:00,16.5,7.8,29.96,SW,217,7.4,7.4,68,0.00,,---,0.04,VWS V13.01,2013-02-20 00:39:00,
2013-02-19 19:44:00,16.5,7.5,29.96,SW,229,6.3,13.0,67,0.00,,---,0.04,VWS V13.01,2013-02-20 00:44:00,
2013-02-19 19:49:00,16.7,7.7,29.96,SSE,159,11.2,12.1,67,0.00,,---,0.04,VWS V13.01,2013-02-20 00:49:00,
2013-02-19 19:54:00,16.5,7.2,29.96,SSW,212,7.4,11.6,66,0.00,,---,0.04,VWS V13.01,2013-02-20 00:54:00,
2013-02-19 19:59:00,16.5,7.2,29.96,SW,217,15.4,15.9,66,0.00,,---,0.04,VWS V13.01,2013-02-20 00:59:00,
2013-02-19 20:04:00,16.3,6.7,29.96,SSW,196,8.7,9.6,65,0.00,,---,0.04,VWS V13.01,2013-02-20 01:04:00,
2013-02-19 20:09:00,16.5,6.8,29.96,South,177,8.3,12.5,65,0.00,,---,0.04,VWS V13.01,2013-02-20 01:09:00,
2013-02-19 20:14:00,16.5,6.5,29.96,SSW,197,12.5,19.9,64,0.00,,---,0.04,VWS V13.01,2013-02-20 01:14:00,
2013-02-19 20:19:00,16.3,6.3,29.96,SSW,194,15.4,15.4,64,0.00,,---,0.04,VWS V13.01,2013-02-20 01:19:00,
2013-02-19 20:25:00,16.3,6.0,29.96,South,187,6.7,16.3,63,0.00,,---,0.04,VWS V13.01,2013-02-20 01:25:00,
2013-02-19 20:30:00,16.3,6.0,29.96,South,188,11.2,11.2,63,0.00,,---,0.04,VWS V13.01,2013-02-20 01:30:00,
2013-02-19 20:35:00,16.3,6.0,29.96,SSE,154,7.8,13.0,63,0.00,,---,0.04,VWS V13.01,2013-02-20 01:35:00,
2013-02-19 20:40:00,16.3,6.0,29.96,SSW,204,6.7,8.7,63,0.00,,---,0.04,VWS V13.01,2013-02-20 01:40:00,
2013-02-19 20:45:00,16.5,5.8,29.96,SSW,196,8.7,14.8,62,0.00,,---,0.04,VWS V13.01,2013-02-20 01:45:00,
2013-02-19 20:50:00,16.3,5.6,29.96,WSW,243,8.3,11.6,62,0.00,,---,0.04,VWS V13.01,2013-02-20 01:50:00,
2013-02-19 20:55:00,16.5,5.4,29.99,SSW,210,13.4,15.4,61,0.00,,---,0.04,VWS V13.01,2013-02-20 01:55:00,
2013-02-19 21:00:00,16.3,5.3,29.99,South,184,7.8,9.6,61,0.00,,---,0.04,VWS V13.01,2013-02-20 02:00:00,
2013-02-19 21:05:00,16.3,5.3,29.99,SSW,203,7.8,13.0,61,0.00,,---,0.04,VWS V13.01,2013-02-20 02:05:00,
2013-02-19 21:10:00,16.3,5.3,29.99,WSW,248,7.8,13.4,61,0.00,,---,0.04,VWS V13.01,2013-02-20 02:10:00,
2013-02-19 21:15:00,16.5,5.4,29.99,South,183,7.4,13.0,61,0.00,,---,0.04,VWS V13.01,2013-02-20 02:15:00,
2013-02-19 21:20:00,16.5,5.4,29.99,SSW,199,13.4,14.8,61,0.00,,---,0.04,VWS V13.01,2013-02-20 02:20:00,
2013-02-19 21:25:00,16.5,5.4,29.99,SSW,199,16.3,16.3,61,0.00,,---,0.04,VWS V13.01,2013-02-20 02:25:00,
2013-02-19 21:30:00,16.3,4.9,29.99,SW,226,11.0,11.6,60,0.00,,---,0.04,VWS V13.01,2013-02-20 02:30:00,
2013-02-19 21:35:00,16.5,5.4,29.99,SW,216,7.8,10.5,61,0.00,,---,0.04,VWS V13.01,2013-02-20 02:35:00,
2013-02-19 21:40:00,16.5,5.1,29.99,SSW,204,10.5,13.0,60,0.00,,---,0.04,VWS V13.01,2013-02-20 02:40:00,
2013-02-19 21:45:00,16.5,5.1,29.99,WNW,297,6.3,12.1,60,0.00,,---,0.04,VWS V13.01,2013-02-20 02:45:00,
2013-02-19 21:50:00,16.5,5.1,29.99,SSW,213,7.8,13.0,60,0.00,,---,0.04,VWS V13.01,2013-02-20 02:50:00,
2013-02-19 21:55:00,16.5,5.1,29.99,WSW,256,7.8,11.2,60,0.00,,---,0.04,VWS V13.01,2013-02-20 02:55:00,
2013-02-19 22:00:00,16.5,5.1,29.99,SSW,196,6.7,6.7,60,0.00,,---,0.04,VWS V13.01,2013-02-20 03:00:00,
2013-02-19 22:05:00,16.7,5.6,29.99,SSW,212,6.7,9.2,61,0.00,,---,0.04,VWS V13.01,2013-02-20 03:05:00,
2013-02-19 22:10:00,16.7,5.6,29.99,SW,215,5.8,10.5,61,0.00,,---,0.04,VWS V13.01,2013-02-20 03:10:00,
2013-02-19 22:15:00,16.9,6.1,29.99,SSW,196,9.2,11.6,62,0.00,,---,0.04,VWS V13.01,2013-02-20 03:15:00,
2013-02-19 22:20:00,16.7,6.3,29.99,SSW,211,9.2,9.6,63,0.00,,---,0.04,VWS V13.01,2013-02-20 03:20:00,
2013-02-19 22:25:00,16.7,6.7,29.99,South,186,5.8,10.5,64,0.00,,---,0.04,VWS V13.01,2013-02-20 03:25:00,
2013-02-19 22:30:00,16.7,7.0,29.99,SSW,194,12.1,12.1,65,0.00,,---,0.04,VWS V13.01,2013-02-20 03:30:00,
2013-02-19 22:35:00,16.7,7.0,29.99,SW,216,2.7,2.7,65,0.00,,---,0.04,VWS V13.01,2013-02-20 03:35:00,
2013-02-19 22:40:00,17.2,7.8,29.99,SW,219,6.7,6.7,66,0.00,,---,0.04,VWS V13.01,2013-02-20 03:40:00,
2013-02-19 22:45:00,17.1,7.7,29.99,SSW,203,8.3,8.3,66,0.00,,---,0.04,VWS V13.01,2013-02-20 03:45:00,
2013-02-19 22:50:00,17.1,7.7,29.99,SSW,200,10.1,10.1,66,0.00,,---,0.04,VWS V13.01,2013-02-20 03:50:00,
2013-02-19 22:55:00,17.2,7.8,30.02,SSW,194,4.0,4.0,66,0.00,,---,0.04,VWS V13.01,2013-02-20 03:55:00,
2013-02-19 23:00:00,17.2,8.2,30.02,SW,215,8.3,8.3,67,0.00,,---,0.04,VWS V13.01,2013-02-20 04:00:00,
2013-02-19 23:05:00,17.2,8.2,30.02,South,188,4.9,7.8,67,0.00,,---,0.04,VWS V13.01,2013-02-20 04:05:00,
2013-02-19 23:10:00,17.1,8.0,30.02,South,180,8.3,8.3,67,0.00,,---,0.04,VWS V13.01,2013-02-20 04:10:00,
2013-02-19 23:15:00,17.2,8.2,30.02,SSW,196,4.5,4.5,67,0.00,,---,0.04,VWS V13.01,2013-02-20 04:15:00,
2013-02-19 23:20:00,17.4,8.7,30.02,SW,228,4.5,5.8,68,0.00,,---,0.04,VWS V13.01,2013-02-20 04:20:00,
2013-02-19 23:25:00,17.8,9.0,30.02,WSW,238,3.1,3.6,68,0.00,,---,0.04,VWS V13.01,2013-02-20 04:25:00,
2013-02-19 23:30:00,18.0,9.2,30.02,SSW,197,0.0,4.9,68,0.00,,---,0.04,VWS V13.01,2013-02-20 04:30:00,
2013-02-19 23:35:00,18.0,8.5,30.02,SW,214,6.3,7.4,66,0.00,,---,0.04,VWS V13.01,2013-02-20 04:35:00,
2013-02-19 23:40:00,18.1,8.4,30.02,SSW,209,2.7,4.5,65,0.00,,---,0.04,VWS V13.01,2013-02-20 04:40:00,
2013-02-19 23:45:00,18.0,7.2,30.02,South,184,9.2,11.0,62,0.00,,---,0.04,VWS V13.01,2013-02-20 04:45:00,
2013-02-19 23:50:00,17.6,6.4,30.02,SSW,208,8.3,11.0,61,0.00,,---,0.04,VWS V13.01,2013-02-20 04:50:00,
2013-02-19 23:55:00,17.6,6.1,30.02,SW,226,4.5,7.8,60,0.00,,---,0.04,VWS V13.01,2013-02-20 04:55:00,